Datum / Uhrzeit;kW;;
01.01.2023 00:15;79.250;;
01.01.2023 00:30;82.714;;
01.01.2023 00:45;77.854;;
01.01.2023 01:00;73.713;;
01.01.2023 01:15;78.922;;
01.01.2023 01:30;80.696;;
01.01.2023 01:45;75.962;;
01.01.2023 02:00;70.173;;
01.01.2023 02:15;69.300;;
01.01.2023 02:30;66.227;;
01.01.2023 02:45;61.761;;
01.01.2023 03:00;62.065;;
01.01.2023 03:15;60.266;;
01.01.2023 03:30;59.702;;
01.01.2023 03:45;63.471;;
01.01.2023 04:00;65.794;;
01.01.2023 04:15;68.114;;
01.01.2023 04:30;72.753;;
01.01.2023 04:45;73.331;;
01.01.2023 05:00;72.214;;
01.01.2023 05:15;69.700;;
01.01.2023 05:30;66.338;;
01.01.2023 05:45;66.261;;
01.01.2023 06:00;66.077;;
01.01.2023 06:15;63.236;;
01.01.2023 06:30;66.788;;
01.01.2023 06:45;65.818;;
01.01.2023 07:00;64.390;;
01.01.2023 07:15;65.994;;
01.01.2023 07:30;64.963;;
01.01.2023 07:45;66.913;;
01.01.2023 08:00;64.239;;
01.01.2023 08:15;64.304;;
01.01.2023 08:30;63.851;;
01.01.2023 08:45;64.675;;
01.01.2023 09:00;65.658;;
01.01.2023 09:15;65.710;;
01.01.2023 09:30;70.347;;
01.01.2023 09:45;71.558;;
01.01.2023 10:00;75.096;;
01.01.2023 10:15;74.990;;
01.01.2023 10:30;73.368;;
01.01.2023 10:45;76.274;;
01.01.2023 11:00;77.239;;
01.01.2023 11:15;79.470;;
01.01.2023 11:30;84.377;;
01.01.2023 11:45;76.606;;
01.01.2023 12:00;84.015;;
01.01.2023 12:15;89.985;;
01.01.2023 12:30;100.710;;
01.01.2023 12:45;103.339;;
01.01.2023 13:00;102.329;;
01.01.2023 13:15;101.139;;
01.01.2023 13:30;104.982;;
01.01.2023 13:45;106.203;;
01.01.2023 14:00;111.736;;
01.01.2023 14:15;115.199;;
01.01.2023 14:30;118.717;;
01.01.2023 14:45;118.353;;
01.01.2023 15:00;118.566;;
01.01.2023 15:15;116.727;;
01.01.2023 15:30;116.501;;
01.01.2023 15:45;116.962;;
01.01.2023 16:00;118.386;;
01.01.2023 16:15;125.338;;
01.01.2023 16:30;135.147;;
01.01.2023 16:45;139.900;;
01.01.2023 17:00;144.336;;
01.01.2023 17:15;144.980;;
01.01.2023 17:30;153.022;;
01.01.2023 17:45;159.493;;
01.01.2023 18:00;152.493;;
01.01.2023 18:15;147.263;;
01.01.2023 18:30;144.373;;
01.01.2023 18:45;138.895;;
01.01.2023 19:00;131.675;;
01.01.2023 19:15;128.853;;
01.01.2023 19:30;122.461;;
01.01.2023 19:45;121.052;;
01.01.2023 20:00;112.439;;
01.01.2023 20:15;108.195;;
01.01.2023 20:30;105.301;;
01.01.2023 20:45;105.832;;
01.01.2023 21:00;104.423;;
01.01.2023 21:15;100.482;;
01.01.2023 21:30;99.829;;
01.01.2023 21:45;101.044;;
01.01.2023 22:00;98.111;;
01.01.2023 22:15;100.566;;
01.01.2023 22:30;101.427;;
01.01.2023 22:45;96.965;;
01.01.2023 23:00;96.091;;
01.01.2023 23:15;91.599;;
01.01.2023 23:30;89.412;;
01.01.2023 23:45;84.425;;
02.01.2023 00:00;80.405;;
02.01.2023 00:15;77.225;;
02.01.2023 00:30;75.782;;
02.01.2023 00:45;75.423;;
02.01.2023 01:00;73.375;;
02.01.2023 01:15;76.805;;
02.01.2023 01:30;78.391;;
02.01.2023 01:45;76.467;;
02.01.2023 02:00;73.154;;
02.01.2023 02:15;68.710;;
02.01.2023 02:30;64.170;;
02.01.2023 02:45;65.185;;
02.01.2023 03:00;62.853;;
02.01.2023 03:15;61.669;;
02.01.2023 03:30;64.707;;
02.01.2023 03:45;64.508;;
02.01.2023 04:00;69.068;;
02.01.2023 04:15;75.275;;
02.01.2023 04:30;74.267;;
02.01.2023 04:45;78.630;;
02.01.2023 05:00;85.197;;
02.01.2023 05:15;92.410;;
02.01.2023 05:30;95.214;;
02.01.2023 05:45;98.992;;
02.01.2023 06:00;105.284;;
02.01.2023 06:15;111.311;;
02.01.2023 06:30;113.743;;
02.01.2023 06:45;113.566;;
02.01.2023 07:00;113.011;;
02.01.2023 07:15;117.086;;
02.01.2023 07:30;118.637;;
02.01.2023 07:45;123.001;;
02.01.2023 08:00;127.789;;
02.01.2023 08:15;129.648;;
02.01.2023 08:30;130.124;;
02.01.2023 08:45;129.627;;
02.01.2023 09:00;125.023;;
02.01.2023 09:15;126.583;;
02.01.2023 09:30;120.095;;
02.01.2023 09:45;113.489;;
02.01.2023 10:00;116.057;;
02.01.2023 10:15;117.969;;
02.01.2023 10:30;125.721;;
02.01.2023 10:45;124.655;;
02.01.2023 11:00;108.273;;
02.01.2023 11:15;110.870;;
02.01.2023 11:30;119.402;;
02.01.2023 11:45;118.880;;
02.01.2023 12:00;120.067;;
02.01.2023 12:15;116.764;;
02.01.2023 12:30;124.869;;
02.01.2023 12:45;135.648;;
02.01.2023 13:00;134.763;;
02.01.2023 13:15;124.257;;
02.01.2023 13:30;132.335;;
02.01.2023 13:45;132.917;;
02.01.2023 14:00;135.766;;
02.01.2023 14:15;136.215;;
02.01.2023 14:30;131.892;;
02.01.2023 14:45;134.791;;
02.01.2023 15:00;138.871;;
02.01.2023 15:15;142.943;;
02.01.2023 15:30;139.852;;
02.01.2023 15:45;139.225;;
02.01.2023 16:00;144.500;;
02.01.2023 16:15;146.656;;
02.01.2023 16:30;139.231;;
02.01.2023 16:45;130.104;;
02.01.2023 17:00;140.515;;
02.01.2023 17:15;165.059;;
02.01.2023 17:30;188.629;;
02.01.2023 17:45;175.939;;
02.01.2023 18:00;167.394;;
02.01.2023 18:15;162.271;;
02.01.2023 18:30;159.787;;
02.01.2023 18:45;151.396;;
02.01.2023 19:00;149.559;;
02.01.2023 19:15;143.268;;
02.01.2023 19:30;144.558;;
02.01.2023 19:45;144.061;;
02.01.2023 20:00;145.970;;
02.01.2023 20:15;136.645;;
02.01.2023 20:30;129.230;;
02.01.2023 20:45;130.900;;
02.01.2023 21:00;137.736;;
02.01.2023 21:15;142.739;;
02.01.2023 21:30;140.188;;
02.01.2023 21:45;142.156;;
02.01.2023 22:00;140.523;;
02.01.2023 22:15;140.302;;
02.01.2023 22:30;134.662;;
02.01.2023 22:45;139.460;;
02.01.2023 23:00;140.929;;
02.01.2023 23:15;138.376;;
02.01.2023 23:30;133.894;;
02.01.2023 23:45;131.000;;
03.01.2023 00:00;125.855;;
03.01.2023 00:15;120.557;;
03.01.2023 00:30;120.699;;
03.01.2023 00:45;120.959;;
03.01.2023 01:00;118.409;;
03.01.2023 01:15;115.854;;
03.01.2023 01:30;112.807;;
03.01.2023 01:45;111.048;;
03.01.2023 02:00;108.632;;
03.01.2023 02:15;108.270;;
03.01.2023 02:30;107.464;;
03.01.2023 02:45;108.312;;
03.01.2023 03:00;108.313;;
03.01.2023 03:15;105.573;;
03.01.2023 03:30;103.600;;
03.01.2023 03:45;103.940;;
03.01.2023 04:00;100.382;;
03.01.2023 04:15;101.228;;
03.01.2023 04:30;104.304;;
03.01.2023 04:45;108.536;;
03.01.2023 05:00;110.879;;
03.01.2023 05:15;120.788;;
03.01.2023 05:30;125.164;;
03.01.2023 05:45;129.493;;
03.01.2023 06:00;136.722;;
03.01.2023 06:15;145.471;;
03.01.2023 06:30;150.103;;
03.01.2023 06:45;149.941;;
03.01.2023 07:00;154.994;;
03.01.2023 07:15;164.380;;
03.01.2023 07:30;165.932;;
03.01.2023 07:45;174.498;;
03.01.2023 08:00;186.012;;
03.01.2023 08:15;192.020;;
03.01.2023 08:30;194.628;;
03.01.2023 08:45;197.993;;
03.01.2023 09:00;202.926;;
03.01.2023 09:15;206.545;;
03.01.2023 09:30;208.572;;
03.01.2023 09:45;203.012;;
03.01.2023 10:00;195.810;;
03.01.2023 10:15;187.054;;
03.01.2023 10:30;176.335;;
03.01.2023 10:45;163.156;;
03.01.2023 11:00;159.516;;
03.01.2023 11:15;159.526;;
03.01.2023 11:30;165.457;;
03.01.2023 11:45;167.740;;
03.01.2023 12:00;171.829;;
03.01.2023 12:15;177.842;;
03.01.2023 12:30;179.152;;
03.01.2023 12:45;172.820;;
03.01.2023 13:00;174.204;;
03.01.2023 13:15;183.017;;
03.01.2023 13:30;182.619;;
03.01.2023 13:45;173.155;;
03.01.2023 14:00;163.831;;
03.01.2023 14:15;161.491;;
03.01.2023 14:30;163.246;;
03.01.2023 14:45;161.389;;
03.01.2023 15:00;156.598;;
03.01.2023 15:15;155.968;;
03.01.2023 15:30;154.484;;
03.01.2023 15:45;157.781;;
03.01.2023 16:00;162.839;;
03.01.2023 16:15;172.644;;
03.01.2023 16:30;177.838;;
03.01.2023 16:45;182.755;;
03.01.2023 17:00;185.062;;
03.01.2023 17:15;185.744;;
03.01.2023 17:30;181.967;;
03.01.2023 17:45;177.666;;
03.01.2023 18:00;173.973;;
03.01.2023 18:15;169.171;;
03.01.2023 18:30;158.306;;
03.01.2023 18:45;155.360;;
03.01.2023 19:00;151.464;;
03.01.2023 19:15;148.650;;
03.01.2023 19:30;152.108;;
03.01.2023 19:45;153.201;;
03.01.2023 20:00;155.699;;
03.01.2023 20:15;152.896;;
03.01.2023 20:30;146.637;;
03.01.2023 20:45;143.666;;
03.01.2023 21:00;142.941;;
03.01.2023 21:15;143.071;;
03.01.2023 21:30;137.747;;
03.01.2023 21:45;136.166;;
03.01.2023 22:00;134.353;;
03.01.2023 22:15;131.145;;
03.01.2023 22:30;125.663;;
03.01.2023 22:45;124.475;;
03.01.2023 23:00;121.788;;
03.01.2023 23:15;112.124;;
03.01.2023 23:30;107.796;;
03.01.2023 23:45;104.181;;
04.01.2023 00:00;102.282;;
04.01.2023 00:15;100.447;;
04.01.2023 00:30;102.913;;
04.01.2023 00:45;98.140;;
04.01.2023 01:00;97.780;;
04.01.2023 01:15;97.521;;
04.01.2023 01:30;97.735;;
04.01.2023 01:45;96.417;;
04.01.2023 02:00;99.450;;
04.01.2023 02:15;98.453;;
04.01.2023 02:30;94.746;;
04.01.2023 02:45;96.280;;
04.01.2023 03:00;97.275;;
04.01.2023 03:15;95.221;;
04.01.2023 03:30;94.828;;
04.01.2023 03:45;94.465;;
04.01.2023 04:00;93.422;;
04.01.2023 04:15;90.951;;
04.01.2023 04:30;87.810;;
04.01.2023 04:45;83.384;;
04.01.2023 05:00;87.107;;
04.01.2023 05:15;85.595;;
04.01.2023 05:30;80.245;;
04.01.2023 05:45;81.876;;
04.01.2023 06:00;87.042;;
04.01.2023 06:15;91.410;;
04.01.2023 06:30;95.068;;
04.01.2023 06:45;96.513;;
04.01.2023 07:00;98.535;;
04.01.2023 07:15;103.035;;
04.01.2023 07:30;108.727;;
04.01.2023 07:45;109.620;;
04.01.2023 08:00;108.194;;
04.01.2023 08:15;114.075;;
04.01.2023 08:30;116.524;;
04.01.2023 08:45;116.223;;
04.01.2023 09:00;117.717;;
04.01.2023 09:15;121.090;;
04.01.2023 09:30;120.602;;
04.01.2023 09:45;121.308;;
04.01.2023 10:00;123.012;;
04.01.2023 10:15;125.709;;
04.01.2023 10:30;131.324;;
04.01.2023 10:45;135.964;;
04.01.2023 11:00;137.604;;
04.01.2023 11:15;135.104;;
04.01.2023 11:30;137.135;;
04.01.2023 11:45;142.236;;
04.01.2023 12:00;144.211;;
04.01.2023 12:15;138.815;;
04.01.2023 12:30;133.069;;
04.01.2023 12:45;138.741;;
04.01.2023 13:00;138.806;;
04.01.2023 13:15;134.086;;
04.01.2023 13:30;133.657;;
04.01.2023 13:45;126.311;;
04.01.2023 14:00;123.886;;
04.01.2023 14:15;122.825;;
04.01.2023 14:30;124.009;;
04.01.2023 14:45;121.860;;
04.01.2023 15:00;120.930;;
04.01.2023 15:15;120.630;;
04.01.2023 15:30;120.256;;
04.01.2023 15:45;119.966;;
04.01.2023 16:00;118.802;;
04.01.2023 16:15;119.501;;
04.01.2023 16:30;120.343;;
04.01.2023 16:45;122.260;;
04.01.2023 17:00;128.719;;
04.01.2023 17:15;136.103;;
04.01.2023 17:30;134.809;;
04.01.2023 17:45;133.968;;
04.01.2023 18:00;132.357;;
04.01.2023 18:15;130.253;;
04.01.2023 18:30;128.791;;
04.01.2023 18:45;129.373;;
04.01.2023 19:00;128.349;;
04.01.2023 19:15;125.246;;
04.01.2023 19:30;124.199;;
04.01.2023 19:45;123.756;;
04.01.2023 20:00;121.892;;
04.01.2023 20:15;119.181;;
04.01.2023 20:30;118.015;;
04.01.2023 20:45;113.091;;
04.01.2023 21:00;109.260;;
04.01.2023 21:15;105.242;;
04.01.2023 21:30;103.884;;
04.01.2023 21:45;104.410;;
04.01.2023 22:00;103.479;;
04.01.2023 22:15;104.247;;
04.01.2023 22:30;103.472;;
04.01.2023 22:45;100.232;;
04.01.2023 23:00;97.693;;
04.01.2023 23:15;94.435;;
04.01.2023 23:30;90.651;;
04.01.2023 23:45;89.681;;
05.01.2023 00:00;90.264;;
05.01.2023 00:15;89.267;;
05.01.2023 00:30;84.486;;
05.01.2023 00:45;81.896;;
05.01.2023 01:00;80.303;;
05.01.2023 01:15;77.877;;
05.01.2023 01:30;78.438;;
05.01.2023 01:45;77.181;;
05.01.2023 02:00;76.192;;
05.01.2023 02:15;74.115;;
05.01.2023 02:30;72.152;;
05.01.2023 02:45;71.908;;
05.01.2023 03:00;72.279;;
05.01.2023 03:15;73.260;;
05.01.2023 03:30;77.213;;
05.01.2023 03:45;85.090;;
05.01.2023 04:00;92.066;;
05.01.2023 04:15;84.509;;
05.01.2023 04:30;93.550;;
05.01.2023 04:45;88.123;;
05.01.2023 05:00;86.067;;
05.01.2023 05:15;88.832;;
05.01.2023 05:30;87.331;;
05.01.2023 05:45;98.715;;
05.01.2023 06:00;104.616;;
05.01.2023 06:15;113.946;;
05.01.2023 06:30;115.139;;
05.01.2023 06:45;118.141;;
05.01.2023 07:00;120.116;;
05.01.2023 07:15;124.261;;
05.01.2023 07:30;132.237;;
05.01.2023 07:45;133.687;;
05.01.2023 08:00;143.983;;
05.01.2023 08:15;158.140;;
05.01.2023 08:30;144.413;;
05.01.2023 08:45;147.057;;
05.01.2023 09:00;149.975;;
05.01.2023 09:15;145.354;;
05.01.2023 09:30;139.529;;
05.01.2023 09:45;129.222;;
05.01.2023 10:00;139.616;;
05.01.2023 10:15;143.116;;
05.01.2023 10:30;139.398;;
05.01.2023 10:45;134.995;;
05.01.2023 11:00;136.342;;
05.01.2023 11:15;128.706;;
05.01.2023 11:30;125.016;;
05.01.2023 11:45;123.407;;
05.01.2023 12:00;132.110;;
05.01.2023 12:15;130.008;;
05.01.2023 12:30;131.698;;
05.01.2023 12:45;141.578;;
05.01.2023 13:00;139.789;;
05.01.2023 13:15;136.299;;
05.01.2023 13:30;134.321;;
05.01.2023 13:45;128.088;;
05.01.2023 14:00;139.135;;
05.01.2023 14:15;143.206;;
05.01.2023 14:30;150.600;;
05.01.2023 14:45;160.698;;
05.01.2023 15:00;164.826;;
05.01.2023 15:15;164.984;;
05.01.2023 15:30;161.331;;
05.01.2023 15:45;157.141;;
05.01.2023 16:00;154.748;;
05.01.2023 16:15;159.073;;
05.01.2023 16:30;162.076;;
05.01.2023 16:45;164.165;;
05.01.2023 17:00;166.332;;
05.01.2023 17:15;172.569;;
05.01.2023 17:30;179.991;;
05.01.2023 17:45;188.330;;
05.01.2023 18:00;185.349;;
05.01.2023 18:15;178.090;;
05.01.2023 18:30;183.004;;
05.01.2023 18:45;185.636;;
05.01.2023 19:00;190.671;;
05.01.2023 19:15;181.344;;
05.01.2023 19:30;178.881;;
05.01.2023 19:45;172.758;;
05.01.2023 20:00;164.114;;
05.01.2023 20:15;159.053;;
05.01.2023 20:30;158.213;;
05.01.2023 20:45;154.868;;
05.01.2023 21:00;149.273;;
05.01.2023 21:15;146.143;;
05.01.2023 21:30;141.990;;
05.01.2023 21:45;143.544;;
05.01.2023 22:00;142.172;;
05.01.2023 22:15;143.108;;
05.01.2023 22:30;143.407;;
05.01.2023 22:45;140.262;;
05.01.2023 23:00;134.273;;
05.01.2023 23:15;128.146;;
05.01.2023 23:30;123.970;;
05.01.2023 23:45;117.567;;
06.01.2023 00:00;116.876;;
06.01.2023 00:15;111.000;;
06.01.2023 00:30;107.370;;
06.01.2023 00:45;103.086;;
06.01.2023 01:00;104.569;;
06.01.2023 01:15;104.543;;
06.01.2023 01:30;95.905;;
06.01.2023 01:45;96.411;;
06.01.2023 02:00;100.069;;
06.01.2023 02:15;98.796;;
06.01.2023 02:30;96.450;;
06.01.2023 02:45;98.429;;
06.01.2023 03:00;99.412;;
06.01.2023 03:15;105.107;;
06.01.2023 03:30;104.768;;
06.01.2023 03:45;102.928;;
06.01.2023 04:00;105.390;;
06.01.2023 04:15;106.760;;
06.01.2023 04:30;105.469;;
06.01.2023 04:45;111.350;;
06.01.2023 05:00;110.634;;
06.01.2023 05:15;109.543;;
06.01.2023 05:30;111.029;;
06.01.2023 05:45;120.237;;
06.01.2023 06:00;125.392;;
06.01.2023 06:15;132.169;;
06.01.2023 06:30;137.244;;
06.01.2023 06:45;149.039;;
06.01.2023 07:00;152.881;;
06.01.2023 07:15;151.395;;
06.01.2023 07:30;152.838;;
06.01.2023 07:45;152.900;;
06.01.2023 08:00;147.648;;
06.01.2023 08:15;145.039;;
06.01.2023 08:30;147.956;;
06.01.2023 08:45;149.864;;
06.01.2023 09:00;150.252;;
06.01.2023 09:15;150.438;;
06.01.2023 09:30;149.380;;
06.01.2023 09:45;149.882;;
06.01.2023 10:00;146.643;;
06.01.2023 10:15;142.934;;
06.01.2023 10:30;150.288;;
06.01.2023 10:45;150.533;;
06.01.2023 11:00;150.837;;
06.01.2023 11:15;146.651;;
06.01.2023 11:30;144.403;;
06.01.2023 11:45;140.752;;
06.01.2023 12:00;132.497;;
06.01.2023 12:15;129.826;;
06.01.2023 12:30;111.888;;
06.01.2023 12:45;107.001;;
06.01.2023 13:00;109.282;;
06.01.2023 13:15;111.883;;
06.01.2023 13:30;111.162;;
06.01.2023 13:45;118.624;;
06.01.2023 14:00;121.469;;
06.01.2023 14:15;130.000;;
06.01.2023 14:30;135.409;;
06.01.2023 14:45;130.214;;
06.01.2023 15:00;128.505;;
06.01.2023 15:15;127.209;;
06.01.2023 15:30;131.240;;
06.01.2023 15:45;138.041;;
06.01.2023 16:00;147.891;;
06.01.2023 16:15;149.634;;
06.01.2023 16:30;151.433;;
06.01.2023 16:45;150.470;;
06.01.2023 17:00;148.670;;
06.01.2023 17:15;152.554;;
06.01.2023 17:30;161.162;;
06.01.2023 17:45;163.729;;
06.01.2023 18:00;161.562;;
06.01.2023 18:15;154.660;;
06.01.2023 18:30;155.694;;
06.01.2023 18:45;155.804;;
06.01.2023 19:00;149.871;;
06.01.2023 19:15;146.247;;
06.01.2023 19:30;152.035;;
06.01.2023 19:45;150.633;;
06.01.2023 20:00;148.236;;
06.01.2023 20:15;150.193;;
06.01.2023 20:30;151.235;;
06.01.2023 20:45;153.115;;
06.01.2023 21:00;151.583;;
06.01.2023 21:15;142.994;;
06.01.2023 21:30;141.282;;
06.01.2023 21:45;149.817;;
06.01.2023 22:00;153.072;;
06.01.2023 22:15;156.030;;
06.01.2023 22:30;159.825;;
06.01.2023 22:45;162.783;;
06.01.2023 23:00;158.153;;
06.01.2023 23:15;148.440;;
06.01.2023 23:30;142.380;;
06.01.2023 23:45;141.108;;
07.01.2023 00:00;139.470;;
07.01.2023 00:15;138.460;;
07.01.2023 00:30;136.332;;
07.01.2023 00:45;131.429;;
07.01.2023 01:00;125.142;;
07.01.2023 01:15;118.902;;
07.01.2023 01:30;117.267;;
07.01.2023 01:45;115.018;;
07.01.2023 02:00;113.038;;
07.01.2023 02:15;111.706;;
07.01.2023 02:30;114.268;;
07.01.2023 02:45;113.144;;
07.01.2023 03:00;110.511;;
07.01.2023 03:15;108.388;;
07.01.2023 03:30;106.646;;
07.01.2023 03:45;108.152;;
07.01.2023 04:00;107.418;;
07.01.2023 04:15;108.170;;
07.01.2023 04:30;109.241;;
07.01.2023 04:45;109.891;;
07.01.2023 05:00;111.873;;
07.01.2023 05:15;112.820;;
07.01.2023 05:30;113.335;;
07.01.2023 05:45;112.468;;
07.01.2023 06:00;112.818;;
07.01.2023 06:15;114.203;;
07.01.2023 06:30;110.802;;
07.01.2023 06:45;111.451;;
07.01.2023 07:00;107.486;;
07.01.2023 07:15;109.499;;
07.01.2023 07:30;109.859;;
07.01.2023 07:45;112.443;;
07.01.2023 08:00;116.663;;
07.01.2023 08:15;114.803;;
07.01.2023 08:30;110.515;;
07.01.2023 08:45;110.034;;
07.01.2023 09:00;113.420;;
07.01.2023 09:15;120.419;;
07.01.2023 09:30;125.592;;
07.01.2023 09:45;128.339;;
07.01.2023 10:00;125.621;;
07.01.2023 10:15;124.568;;
07.01.2023 10:30;124.316;;
07.01.2023 10:45;122.063;;
07.01.2023 11:00;118.704;;
07.01.2023 11:15;117.450;;
07.01.2023 11:30;116.664;;
07.01.2023 11:45;122.646;;
07.01.2023 12:00;123.748;;
07.01.2023 12:15;128.121;;
07.01.2023 12:30;128.355;;
07.01.2023 12:45;121.759;;
07.01.2023 13:00;120.932;;
07.01.2023 13:15;121.247;;
07.01.2023 13:30;119.689;;
07.01.2023 13:45;120.697;;
07.01.2023 14:00;120.559;;
07.01.2023 14:15;119.908;;
07.01.2023 14:30;121.130;;
07.01.2023 14:45;122.368;;
07.01.2023 15:00;123.746;;
07.01.2023 15:15;123.985;;
07.01.2023 15:30;123.872;;
07.01.2023 15:45;123.377;;
07.01.2023 16:00;123.521;;
07.01.2023 16:15;124.478;;
07.01.2023 16:30;123.223;;
07.01.2023 16:45;128.397;;
07.01.2023 17:00;128.232;;
07.01.2023 17:15;131.303;;
07.01.2023 17:30;129.430;;
07.01.2023 17:45;130.222;;
07.01.2023 18:00;133.456;;
07.01.2023 18:15;139.236;;
07.01.2023 18:30;137.991;;
07.01.2023 18:45;138.017;;
07.01.2023 19:00;137.961;;
07.01.2023 19:15;136.688;;
07.01.2023 19:30;131.010;;
07.01.2023 19:45;128.156;;
07.01.2023 20:00;123.787;;
07.01.2023 20:15;120.054;;
07.01.2023 20:30;116.104;;
07.01.2023 20:45;113.297;;
07.01.2023 21:00;119.012;;
07.01.2023 21:15;118.949;;
07.01.2023 21:30;115.208;;
07.01.2023 21:45;117.154;;
07.01.2023 22:00;120.810;;
07.01.2023 22:15;128.433;;
07.01.2023 22:30;130.030;;
07.01.2023 22:45;124.881;;
07.01.2023 23:00;120.936;;
07.01.2023 23:15;110.698;;
07.01.2023 23:30;100.126;;
07.01.2023 23:45;92.437;;
08.01.2023 00:00;85.725;;
08.01.2023 00:15;83.101;;
08.01.2023 00:30;84.148;;
08.01.2023 00:45;79.161;;
08.01.2023 01:00;82.675;;
08.01.2023 01:15;91.007;;
08.01.2023 01:30;88.778;;
08.01.2023 01:45;83.655;;
08.01.2023 02:00;75.006;;
08.01.2023 02:15;66.780;;
08.01.2023 02:30;65.884;;
08.01.2023 02:45;71.291;;
08.01.2023 03:00;72.665;;
08.01.2023 03:15;76.783;;
08.01.2023 03:30;77.275;;
08.01.2023 03:45;78.974;;
08.01.2023 04:00;80.845;;
08.01.2023 04:15;79.025;;
08.01.2023 04:30;80.752;;
08.01.2023 04:45;85.178;;
08.01.2023 05:00;77.231;;
08.01.2023 05:15;73.200;;
08.01.2023 05:30;67.533;;
08.01.2023 05:45;64.842;;
08.01.2023 06:00;63.088;;
08.01.2023 06:15;64.949;;
08.01.2023 06:30;68.311;;
08.01.2023 06:45;73.302;;
08.01.2023 07:00;73.557;;
08.01.2023 07:15;79.686;;
08.01.2023 07:30;84.841;;
08.01.2023 07:45;78.133;;
08.01.2023 08:00;75.107;;
08.01.2023 08:15;78.404;;
08.01.2023 08:30;78.330;;
08.01.2023 08:45;82.950;;
08.01.2023 09:00;88.841;;
08.01.2023 09:15;90.029;;
08.01.2023 09:30;99.981;;
08.01.2023 09:45;108.623;;
08.01.2023 10:00;112.699;;
08.01.2023 10:15;113.852;;
08.01.2023 10:30;118.404;;
08.01.2023 10:45;121.960;;
08.01.2023 11:00;124.423;;
08.01.2023 11:15;124.920;;
08.01.2023 11:30;128.623;;
08.01.2023 11:45;121.373;;
08.01.2023 12:00;113.468;;
08.01.2023 12:15;120.486;;
08.01.2023 12:30;124.388;;
08.01.2023 12:45;121.817;;
08.01.2023 13:00;125.818;;
08.01.2023 13:15;124.675;;
08.01.2023 13:30;117.681;;
08.01.2023 13:45;117.114;;
08.01.2023 14:00;117.434;;
08.01.2023 14:15;114.420;;
08.01.2023 14:30;113.710;;
08.01.2023 14:45;111.571;;
08.01.2023 15:00;105.512;;
08.01.2023 15:15;117.390;;
08.01.2023 15:30;117.071;;
08.01.2023 15:45;114.741;;
08.01.2023 16:00;117.158;;
08.01.2023 16:15;118.768;;
08.01.2023 16:30;125.564;;
08.01.2023 16:45;127.340;;
08.01.2023 17:00;129.622;;
08.01.2023 17:15;138.907;;
08.01.2023 17:30;149.278;;
08.01.2023 17:45;143.359;;
08.01.2023 18:00;139.600;;
08.01.2023 18:15;141.175;;
08.01.2023 18:30;141.413;;
08.01.2023 18:45;147.813;;
08.01.2023 19:00;151.543;;
08.01.2023 19:15;148.133;;
08.01.2023 19:30;137.470;;
08.01.2023 19:45;133.245;;
08.01.2023 20:00;130.940;;
08.01.2023 20:15;128.993;;
08.01.2023 20:30;129.239;;
08.01.2023 20:45;125.576;;
08.01.2023 21:00;121.746;;
08.01.2023 21:15;116.150;;
08.01.2023 21:30;113.851;;
08.01.2023 21:45;118.298;;
08.01.2023 22:00;119.729;;
08.01.2023 22:15;118.097;;
08.01.2023 22:30;111.311;;
08.01.2023 22:45;104.114;;
08.01.2023 23:00;94.718;;
08.01.2023 23:15;83.329;;
08.01.2023 23:30;81.225;;
08.01.2023 23:45;79.532;;
09.01.2023 00:00;77.126;;
09.01.2023 00:15;75.096;;
09.01.2023 00:30;72.657;;
09.01.2023 00:45;71.112;;
09.01.2023 01:00;70.855;;
09.01.2023 01:15;71.093;;
09.01.2023 01:30;68.577;;
09.01.2023 01:45;68.672;;
09.01.2023 02:00;67.939;;
09.01.2023 02:15;68.410;;
09.01.2023 02:30;72.329;;
09.01.2023 02:45;80.096;;
09.01.2023 03:00;90.546;;
09.01.2023 03:15;100.142;;
09.01.2023 03:30;102.795;;
09.01.2023 03:45;98.721;;
09.01.2023 04:00;87.251;;
09.01.2023 04:15;83.554;;
09.01.2023 04:30;84.331;;
09.01.2023 04:45;82.346;;
09.01.2023 05:00;86.965;;
09.01.2023 05:15;94.333;;
09.01.2023 05:30;92.359;;
09.01.2023 05:45;91.839;;
09.01.2023 06:00;101.593;;
09.01.2023 06:15;103.972;;
09.01.2023 06:30;104.318;;
09.01.2023 06:45;113.209;;
09.01.2023 07:00;118.736;;
09.01.2023 07:15;132.714;;
09.01.2023 07:30;141.700;;
09.01.2023 07:45;140.941;;
09.01.2023 08:00;144.142;;
09.01.2023 08:15;146.221;;
09.01.2023 08:30;141.504;;
09.01.2023 08:45;138.469;;
09.01.2023 09:00;137.982;;
09.01.2023 09:15;142.524;;
09.01.2023 09:30;146.753;;
09.01.2023 09:45;146.758;;
09.01.2023 10:00;148.308;;
09.01.2023 10:15;148.577;;
09.01.2023 10:30;145.436;;
09.01.2023 10:45;142.157;;
09.01.2023 11:00;141.022;;
09.01.2023 11:15;142.514;;
09.01.2023 11:30;144.372;;
09.01.2023 11:45;151.896;;
09.01.2023 12:00;150.183;;
09.01.2023 12:15;137.955;;
09.01.2023 12:30;144.921;;
09.01.2023 12:45;154.111;;
09.01.2023 13:00;153.824;;
09.01.2023 13:15;153.851;;
09.01.2023 13:30;154.481;;
09.01.2023 13:45;149.738;;
09.01.2023 14:00;147.490;;
09.01.2023 14:15;147.282;;
09.01.2023 14:30;147.722;;
09.01.2023 14:45;148.262;;
09.01.2023 15:00;148.899;;
09.01.2023 15:15;150.457;;
09.01.2023 15:30;149.193;;
09.01.2023 15:45;142.703;;
09.01.2023 16:00;140.150;;
09.01.2023 16:15;145.629;;
09.01.2023 16:30;144.855;;
09.01.2023 16:45;149.617;;
09.01.2023 17:00;150.911;;
09.01.2023 17:15;162.118;;
09.01.2023 17:30;165.942;;
09.01.2023 17:45;167.633;;
09.01.2023 18:00;165.443;;
09.01.2023 18:15;159.857;;
09.01.2023 18:30;160.148;;
09.01.2023 18:45;161.396;;
09.01.2023 19:00;159.144;;
09.01.2023 19:15;165.924;;
09.01.2023 19:30;169.987;;
09.01.2023 19:45;172.858;;
09.01.2023 20:00;181.614;;
09.01.2023 20:15;173.187;;
09.01.2023 20:30;175.745;;
09.01.2023 20:45;173.886;;
09.01.2023 21:00;165.892;;
09.01.2023 21:15;157.879;;
09.01.2023 21:30;150.970;;
09.01.2023 21:45;141.302;;
09.01.2023 22:00;148.175;;
09.01.2023 22:15;150.567;;
09.01.2023 22:30;146.918;;
09.01.2023 22:45;145.208;;
09.01.2023 23:00;138.985;;
09.01.2023 23:15;129.750;;
09.01.2023 23:30;124.091;;
09.01.2023 23:45;119.143;;